カタログに戻る

CZ-6A DEB

運用中SSO
NORAD 56261·DEBRIS·🇨🇳 China

打ち上げ Nov 11, 2022 から Taiyuan Satellite Launch Center

Loading…

次のパス (今後24時間)

TLE

最新Source: Space-Track

元期: Sep 14, 2026, 01:16 UTC

1 56261U 22151ACD 26257.05313228  .00005050  00000-0  17650-2 0  9998
2 56261  98.7981 280.3836 0038225  32.4695 327.8830 14.35237081184742

AllMySatでCZ-6A DEBをリアルタイム追跡

Download on the App Store